Time,TemperatureF,DewpointF,PressureIn,WindDirection,WindDirectionDegrees,WindSpeedMPH,WindSpeedGustMPH,Humidity,HourlyPrecipIn,Conditions,Clouds,dailyrainin,SoftwareType,DateUTC
2013-01-10 00:00:00,44.6,25.1,30.15,NW,322,5.8,9.2,46,0.00,,,0.00,VWS V12.08,2013-01-10 05:00:00,
2013-01-10 00:04:00,44.6,25.1,30.15,NW,322,5.8,9.2,46,0.00,,,0.00,VWS V12.08,2013-01-10 05:04:00,
2013-01-10 00:06:00,44.8,24.8,30.15,NW,304,3.6,8.7,45,0.00,,,0.00,VWS V12.08,2013-01-10 05:06:00,
2013-01-10 00:11:00,45.0,24.9,30.15,WSW,250,6.3,8.7,45,0.00,,,0.00,VWS V12.08,2013-01-10 05:11:00,
2013-01-10 00:17:00,45.0,24.4,30.15,WSW,245,4.9,11.0,44,0.00,,,0.00,VWS V12.08,2013-01-10 05:17:00,
2013-01-10 00:20:00,45.0,23.8,30.18,NW,308,6.3,11.0,43,0.00,,,0.00,VWS V12.08,2013-01-10 05:20:00,
2013-01-10 00:26:00,45.0,23.8,30.18,NNW,340,3.1,8.3,43,0.00,,,0.00,VWS V12.08,2013-01-10 05:26:00,
2013-01-10 00:35:00,44.8,23.7,30.18,West,262,5.4,8.3,43,0.00,,,0.00,VWS V12.08,2013-01-10 05:35:00,
2013-01-10 00:40:00,44.6,22.9,30.15,West,268,5.8,8.3,42,0.00,,,0.00,VWS V12.08,2013-01-10 05:40:00,
2013-01-10 00:46:00,44.6,23.5,30.15,WSW,252,3.6,8.1,43,0.00,,,0.00,VWS V12.08,2013-01-10 05:46:00,
2013-01-10 00:55:00,44.4,22.8,30.15,West,273,4.0,8.1,42,0.00,,,0.00,VWS V12.08,2013-01-10 05:55:00,
2013-01-10 01:00:00,44.2,22.6,30.15,West,279,2.2,8.1,42,0.00,,,0.00,VWS V12.08,2013-01-10 06:00:00,
2013-01-10 01:04:00,44.2,22.6,30.15,West,279,2.2,8.1,42,0.00,,,0.00,VWS V12.08,2013-01-10 06:04:00,
2013-01-10 01:10:00,44.2,22.6,30.18,WSW,253,4.0,5.8,42,0.00,,,0.00,VWS V12.08,2013-01-10 06:10:00,
2013-01-10 01:15:00,44.1,22.5,30.18,NNW,341,5.4,6.7,42,0.00,,,0.00,VWS V12.08,2013-01-10 06:15:00,
2013-01-10 01:20:00,44.1,21.9,30.18,WSW,246,3.6,6.7,41,0.00,,,0.00,VWS V12.08,2013-01-10 06:20:00,
2013-01-10 01:25:00,44.1,21.9,30.18,West,281,5.8,6.3,41,0.00,,,0.00,VWS V12.08,2013-01-10 06:25:00,
2013-01-10 01:31:00,44.1,21.9,30.18,NNW,339,3.6,6.3,41,0.00,,,0.00,VWS V12.08,2013-01-10 06:31:00,
2013-01-10 01:40:00,43.9,22.3,30.18,West,276,3.6,6.3,42,0.00,,,0.00,VWS V12.08,2013-01-10 06:40:00,
2013-01-10 01:46:00,43.9,22.3,30.18,NNW,341,2.7,6.3,42,0.00,,,0.00,VWS V12.08,2013-01-10 06:46:00,
2013-01-10 01:55:00,43.7,21.6,30.18,West,265,4.0,8.1,41,0.00,,,0.00,VWS V12.08,2013-01-10 06:55:00,
2013-01-10 02:03:00,43.7,21.6,30.18,WNW,291,3.1,8.1,41,0.00,,,0.00,VWS V12.08,2013-01-10 07:03:00,
2013-01-10 02:10:00,43.7,21.6,30.18,WSW,248,4.5,5.8,41,0.00,,,0.00,VWS V12.08,2013-01-10 07:10:00,
2013-01-10 02:16:00,43.7,21.6,30.18,NW,325,3.6,5.8,41,0.00,,,0.00,VWS V12.08,2013-01-10 07:16:00,
2013-01-10 02:25:00,43.3,21.2,30.18,North,0,2.2,7.6,41,0.00,,,0.00,VWS V12.08,2013-01-10 07:25:00,
2013-01-10 02:31:00,43.3,21.2,30.18,West,264,3.6,7.6,41,0.00,,,0.00,VWS V12.08,2013-01-10 07:31:00,
2013-01-10 02:40:00,43.0,20.9,30.18,West,271,3.6,7.6,41,0.00,,,0.00,VWS V12.08,2013-01-10 07:40:00,
2013-01-10 02:46:00,43.0,20.3,30.18,WSW,257,3.6,5.8,40,0.00,,,0.00,VWS V12.08,2013-01-10 07:46:00,
2013-01-10 02:55:00,43.0,20.3,30.18,NW,326,3.1,7.2,40,0.00,,,0.00,VWS V12.08,2013-01-10 07:55:00,
2013-01-10 03:04:00,42.8,20.2,30.18,WSW,254,2.7,8.3,40,0.00,,,0.00,VWS V12.08,2013-01-10 08:04:00,
2013-01-10 03:10:00,43.0,20.3,30.18,North,11,3.6,8.3,40,0.00,,,0.00,VWS V12.08,2013-01-10 08:10:00,
2013-01-10 03:17:00,43.0,19.7,30.18,WSW,240,3.1,8.3,39,0.00,,,0.00,VWS V12.08,2013-01-10 08:17:00,
2013-01-10 03:25:00,43.0,19.7,30.21,NW,307,4.0,6.3,39,0.00,,,0.00,VWS V12.08,2013-01-10 08:25:00,
2013-01-10 03:55:00,42.8,19.0,30.21,NNW,340,7.6,12.8,38,0.00,,,0.00,VWS V12.08,2013-01-10 08:55:00,
2013-01-10 04:05:00,42.8,19.0,30.21,NNW,336,3.6,8.7,38,0.00,,,0.00,VWS V12.08,2013-01-10 09:05:00,
2013-01-10 04:10:00,42.6,19.4,30.21,NNW,330,5.4,8.7,39,0.00,,,0.00,VWS V12.08,2013-01-10 09:10:00,
2013-01-10 04:16:00,42.4,19.2,30.21,West,268,2.7,8.7,39,0.00,,,0.00,VWS V12.08,2013-01-10 09:16:00,
2013-01-10 04:21:00,42.4,19.2,30.24,NNW,338,5.4,5.4,39,0.00,,,0.00,VWS V12.08,2013-01-10 09:21:00,
2013-01-10 04:31:00,42.3,19.1,30.24,NNW,341,4.9,8.3,39,0.00,,,0.00,VWS V12.08,2013-01-10 09:31:00,
2013-01-10 04:40:00,42.1,18.9,30.24,NNW,348,5.8,8.3,39,0.00,,,0.00,VWS V12.08,2013-01-10 09:40:00,
2013-01-10 04:46:00,42.1,18.3,30.24,NW,318,3.1,7.6,38,0.00,,,0.00,VWS V12.08,2013-01-10 09:46:00,
2013-01-10 04:55:00,42.1,18.9,30.27,West,261,4.9,8.3,39,0.00,,,0.00,VWS V12.08,2013-01-10 09:55:00,
2013-01-10 05:03:00,41.9,18.8,30.27,WNW,303,5.8,8.7,39,0.00,,,0.00,VWS V12.08,2013-01-10 10:03:00,
2013-01-10 05:10:00,41.7,18.6,30.27,NW,315,5.4,8.3,39,0.00,,,0.00,VWS V12.08,2013-01-10 10:10:00,
2013-01-10 05:16:00,41.7,18.6,30.27,NW,317,3.1,8.3,39,0.00,,,0.00,VWS V12.08,2013-01-10 10:16:00,
2013-01-10 05:25:00,41.7,18.6,30.27,North,8,4.9,6.3,39,0.00,,,0.00,VWS V12.08,2013-01-10 10:25:00,
2013-01-10 05:31:00,41.7,18.6,30.27,NNW,343,6.3,7.6,39,0.00,,,0.00,VWS V12.08,2013-01-10 10:31:00,
2013-01-10 05:40:00,41.5,18.4,30.27,NNW,336,3.1,8.7,39,0.00,,,0.00,VWS V12.08,2013-01-10 10:40:00,
2013-01-10 05:46:00,41.5,18.4,30.27,WSW,243,6.3,8.1,39,0.00,,,0.00,VWS V12.08,2013-01-10 10:46:00,
2013-01-10 05:55:00,41.5,18.4,30.30,NNW,340,6.3,8.1,39,0.00,,,0.00,VWS V12.08,2013-01-10 10:55:00,
2013-01-10 06:04:00,41.5,18.4,30.30,NW,304,5.8,8.7,39,0.00,,,0.00,VWS V12.08,2013-01-10 11:04:00,
2013-01-10 06:10:00,41.5,18.4,30.30,WNW,301,2.7,8.1,39,0.00,,,0.00,VWS V12.08,2013-01-10 11:10:00,
2013-01-10 06:16:00,41.4,18.3,30.30,NNW,346,3.6,8.1,39,0.00,,,0.00,VWS V12.08,2013-01-10 11:16:00,
2013-01-10 06:25:00,41.4,18.3,30.33,NE,50,2.7,6.3,39,0.00,,,0.00,VWS V12.08,2013-01-10 11:25:00,
2013-01-10 06:31:00,41.4,18.3,30.33,NW,321,4.0,6.3,39,0.00,,,0.00,VWS V12.08,2013-01-10 11:31:00,
2013-01-10 06:40:00,41.2,18.1,30.33,WNW,298,3.6,8.1,39,0.00,,,0.00,VWS V12.08,2013-01-10 11:40:00,
2013-01-10 06:46:00,41.2,18.1,30.33,NNW,334,3.1,4.9,39,0.00,,,0.00,VWS V12.08,2013-01-10 11:46:00,
2013-01-10 06:55:00,41.0,18.0,30.33,NNW,329,2.7,5.4,39,0.00,,,0.00,VWS V12.08,2013-01-10 11:55:00,
2013-01-10 07:04:00,41.0,18.0,30.33,NNW,335,4.0,6.3,39,0.00,,,0.00,VWS V12.08,2013-01-10 12:04:00,
2013-01-10 07:10:00,41.0,18.0,30.36,NNW,337,2.7,6.3,39,0.00,,,0.00,VWS V12.08,2013-01-10 12:10:00,
2013-01-10 07:16:00,41.0,18.0,30.36,NNW,336,3.6,6.3,39,0.00,,,0.00,VWS V12.08,2013-01-10 12:16:00,
2013-01-10 07:25:00,41.0,18.0,30.36,NW,321,4.0,8.3,39,0.00,,,0.00,VWS V12.08,2013-01-10 12:25:00,
2013-01-10 07:31:00,41.0,18.0,30.36,North,353,5.4,8.3,39,0.00,,,0.00,VWS V12.08,2013-01-10 12:31:00,
2013-01-10 07:40:00,41.0,18.0,30.36,WNW,298,2.2,8.3,39,0.00,,,0.00,VWS V12.08,2013-01-10 12:40:00,
2013-01-10 07:46:00,41.0,18.0,30.36,NE,48,3.1,8.3,39,0.00,,,0.00,VWS V12.08,2013-01-10 12:46:00,
2013-01-10 07:55:00,41.0,18.0,30.36,North,1,6.3,8.3,39,0.00,,,0.00,VWS V12.08,2013-01-10 12:55:00,
2013-01-10 08:04:00,41.2,17.5,30.36,ENE,74,5.4,8.3,38,0.00,,,0.00,VWS V12.08,2013-01-10 13:04:00,
2013-01-10 08:11:00,41.2,18.1,30.39,NNE,17,5.4,8.3,39,0.00,,,0.00,VWS V12.08,2013-01-10 13:11:00,
2013-01-10 08:16:00,41.4,18.3,30.39,NNE,13,2.2,8.3,39,0.00,,,0.00,VWS V12.08,2013-01-10 13:16:00,
2013-01-10 08:26:00,41.4,18.3,30.42,NNW,332,3.6,8.1,39,0.00,,,0.00,VWS V12.08,2013-01-10 13:26:00,
2013-01-10 08:31:00,41.5,17.8,30.42,NNW,339,4.9,8.7,38,0.00,,,0.00,VWS V12.08,2013-01-10 13:31:00,
2013-01-10 08:41:00,41.7,18.0,30.42,NNW,346,4.0,8.7,38,0.00,,,0.00,VWS V12.08,2013-01-10 13:41:00,
2013-01-10 08:46:00,41.7,18.0,30.42,West,270,4.0,6.3,38,0.00,,,0.00,VWS V12.08,2013-01-10 13:46:00,
2013-01-10 08:56:00,42.1,17.7,30.42,West,276,5.8,9.6,37,0.00,,,0.00,VWS V12.08,2013-01-10 13:56:00,
2013-01-10 09:04:00,42.1,17.7,30.42,NNW,337,3.1,9.6,37,0.00,,,0.00,VWS V12.08,2013-01-10 14:04:00,
2013-01-10 09:11:00,42.3,17.9,30.42,NNW,334,2.7,8.7,37,0.00,,,0.00,VWS V12.08,2013-01-10 14:11:00,
2013-01-10 09:16:00,42.3,17.2,30.42,West,271,5.4,8.7,36,0.00,,,0.00,VWS V12.08,2013-01-10 14:16:00,
2013-01-10 09:26:00,42.3,16.6,30.45,SW,227,6.3,6.3,35,0.00,,,0.00,VWS V12.08,2013-01-10 14:26:00,
2013-01-10 09:31:00,42.4,17.4,30.45,NW,323,3.6,6.3,36,0.00,,,0.00,VWS V12.08,2013-01-10 14:31:00,
2013-01-10 09:41:00,42.8,17.7,30.45,NNW,331,5.4,6.3,36,0.00,,,0.00,VWS V12.08,2013-01-10 14:41:00,
2013-01-10 09:46:00,43.0,17.9,30.45,NNE,13,3.1,8.1,36,0.00,,,0.00,VWS V12.08,2013-01-10 14:46:00,
2013-01-10 09:56:00,43.5,17.7,30.45,NNW,343,4.9,8.1,35,0.00,,,0.00,VWS V12.08,2013-01-10 14:56:00,
2013-01-10 10:05:00,43.7,18.5,30.45,NNW,340,3.6,8.7,36,0.00,,,0.00,VWS V12.08,2013-01-10 15:05:00,
2013-01-10 10:11:00,44.2,17.7,30.45,North,8,6.3,8.7,34,0.00,,,0.00,VWS V12.08,2013-01-10 15:11:00,
2013-01-10 10:16:00,44.4,18.5,30.45,NW,325,4.0,8.7,35,0.00,,,0.00,VWS V12.08,2013-01-10 15:16:00,
2013-01-10 10:26:00,44.8,18.1,30.45,North,353,2.7,7.6,34,0.00,,,0.00,VWS V12.08,2013-01-10 15:26:00,
2013-01-10 10:35:00,45.0,16.9,30.45,NNW,333,5.8,8.7,32,0.00,,,0.00,VWS V12.08,2013-01-10 15:35:00,
2013-01-10 10:40:00,45.1,17.8,30.45,NNE,12,4.9,10.1,33,0.00,,,0.00,VWS V12.08,2013-01-10 15:40:00,
2013-01-10 10:46:00,45.1,17.1,30.45,NE,36,5.4,5.8,32,0.00,,,0.00,VWS V12.08,2013-01-10 15:46:00,
2013-01-10 10:55:00,45.1,16.3,30.45,NNE,19,4.0,8.7,31,0.00,,,0.00,VWS V12.08,2013-01-10 15:55:00,
2013-01-10 11:04:00,45.1,16.3,30.45,WNW,294,2.7,8.7,31,0.00,,,0.00,VWS V12.08,2013-01-10 16:04:00,
2013-01-10 11:10:00,45.1,15.6,30.45,North,350,4.0,10.1,30,0.00,,,0.00,VWS V12.08,2013-01-10 16:10:00,
2013-01-10 11:16:00,45.1,15.6,30.45,NNW,334,4.0,10.1,30,0.00,,,0.00,VWS V12.08,2013-01-10 16:16:00,
2013-01-10 11:25:00,45.3,15.7,30.45,NNW,340,5.4,8.1,30,0.00,,,0.00,VWS V12.08,2013-01-10 16:25:00,
2013-01-10 11:31:00,45.3,15.7,30.45,NW,326,5.8,8.1,30,0.00,,,0.00,VWS V12.08,2013-01-10 16:31:00,
2013-01-10 11:40:00,45.3,15.7,30.42,NNW,339,4.0,8.7,30,0.00,,,0.00,VWS V12.08,2013-01-10 16:40:00,
2013-01-10 11:46:00,45.5,15.9,30.42,West,279,5.4,10.1,30,0.00,,,0.00,VWS V12.08,2013-01-10 16:46:00,
2013-01-10 11:55:00,45.5,15.9,30.42,West,276,5.4,10.1,30,0.00,,,0.00,VWS V12.08,2013-01-10 16:55:00,
2013-01-10 12:04:00,45.9,16.2,30.42,NNW,334,5.8,10.1,30,0.00,,,0.00,VWS V12.08,2013-01-10 17:04:00,
2013-01-10 12:10:00,45.9,16.2,30.42,NW,320,3.6,10.5,30,0.00,,,0.00,VWS V12.08,2013-01-10 17:10:00,
2013-01-10 12:16:00,45.9,16.2,30.42,NNW,341,9.6,10.5,30,0.00,,,0.00,VWS V12.08,2013-01-10 17:16:00,
2013-01-10 12:25:00,45.9,15.4,30.42,North,1,8.7,8.7,29,0.00,,,0.00,VWS V12.08,2013-01-10 17:25:00,
2013-01-10 12:31:00,45.9,15.4,30.42,SW,225,3.1,8.7,29,0.00,,,0.00,VWS V12.08,2013-01-10 17:31:00,
2013-01-10 12:40:00,45.9,15.4,30.42,NW,306,3.1,8.7,29,0.00,,,0.00,VWS V12.08,2013-01-10 17:40:00,
2013-01-10 12:46:00,45.7,15.3,30.42,NNW,345,3.6,8.1,29,0.00,,,0.00,VWS V12.08,2013-01-10 17:46:00,
2013-01-10 12:55:00,45.3,15.7,30.42,NNW,332,2.7,8.1,30,0.00,,,0.00,VWS V12.08,2013-01-10 17:55:00,
2013-01-10 13:04:00,45.1,14.8,30.42,NE,40,3.6,8.1,29,0.00,,,0.00,VWS V12.08,2013-01-10 18:04:00,
2013-01-10 13:10:00,44.8,14.5,30.45,WNW,285,8.3,8.3,29,0.00,,,0.00,VWS V12.08,2013-01-10 18:10:00,
2013-01-10 13:16:00,44.8,14.5,30.45,WNW,284,4.0,8.3,29,0.00,,,0.00,VWS V12.08,2013-01-10 18:16:00,
2013-01-10 13:25:00,44.6,14.3,30.45,NW,326,5.4,8.3,29,0.00,,,0.00,VWS V12.08,2013-01-10 18:25:00,
2013-01-10 13:31:00,44.4,14.9,30.45,NNW,338,2.7,8.3,30,0.00,,,0.00,VWS V12.08,2013-01-10 18:31:00,
2013-01-10 13:41:00,44.6,15.1,30.45,NE,34,3.1,8.3,30,0.00,,,0.00,VWS V12.08,2013-01-10 18:41:00,
2013-01-10 13:46:00,44.8,15.3,30.45,NNW,336,4.0,5.8,30,0.00,,,0.00,VWS V12.08,2013-01-10 18:46:00,
2013-01-10 13:55:00,44.8,15.3,30.45,NNW,340,4.0,6.3,30,0.00,,,0.00,VWS V12.08,2013-01-10 18:55:00,
2013-01-10 14:05:00,44.8,15.3,30.45,NW,325,2.7,7.6,30,0.00,,,0.00,VWS V12.08,2013-01-10 19:05:00,
2013-01-10 14:11:00,45.0,15.4,30.45,NNW,337,3.6,6.3,30,0.00,,,0.00,VWS V12.08,2013-01-10 19:11:00,
2013-01-10 14:16:00,45.1,15.6,30.45,East,86,3.1,6.3,30,0.00,,,0.00,VWS V12.08,2013-01-10 19:16:00,
2013-01-10 14:25:00,45.3,15.7,30.47,NNW,328,5.8,8.3,30,0.00,,,0.00,VWS V12.08,2013-01-10 19:25:00,
2013-01-10 14:31:00,45.1,15.6,30.47,NNW,346,4.0,8.3,30,0.00,,,0.00,VWS V12.08,2013-01-10 19:31:00,
2013-01-10 14:41:00,45.0,14.6,30.47,NNW,333,4.0,8.3,29,0.00,,,0.00,VWS V12.08,2013-01-10 19:41:00,
2013-01-10 14:46:00,45.1,15.6,30.47,WNW,294,3.6,7.6,30,0.00,,,0.00,VWS V12.08,2013-01-10 19:46:00,
2013-01-10 14:56:00,45.1,14.8,30.47,NW,314,5.4,8.1,29,0.00,,,0.00,VWS V12.08,2013-01-10 19:56:00,
2013-01-10 15:03:00,45.0,14.6,30.47,North,1,4.9,8.1,29,0.00,,,0.00,VWS V12.08,2013-01-10 20:03:00,
2013-01-10 15:11:00,44.6,15.1,30.47,NNW,336,4.0,8.3,30,0.00,,,0.00,VWS V12.08,2013-01-10 20:11:00,
2013-01-10 15:16:00,44.2,14.8,30.47,North,353,4.5,8.3,30,0.00,,,0.00,VWS V12.08,2013-01-10 20:16:00,
2013-01-10 15:26:00,44.1,14.6,30.47,NNW,336,4.0,5.8,30,0.00,,,0.00,VWS V12.08,2013-01-10 20:26:00,
2013-01-10 15:32:00,43.9,14.5,30.47,North,5,3.1,8.1,30,0.00,,,0.00,VWS V12.08,2013-01-10 20:32:00,
2013-01-10 15:41:00,43.5,14.2,30.47,NNW,340,3.1,8.1,30,0.00,,,0.00,VWS V12.08,2013-01-10 20:41:00,
2013-01-10 15:48:00,43.3,14.0,30.47,WSW,255,3.6,8.1,30,0.00,,,0.00,VWS V12.08,2013-01-10 20:48:00,
2013-01-10 15:56:00,43.2,13.8,30.47,NNE,32,3.1,8.1,30,0.00,,,0.00,VWS V12.08,2013-01-10 20:56:00,
2013-01-10 16:05:00,43.2,13.8,30.47,NNE,21,3.6,8.1,30,0.00,,,0.00,VWS V12.08,2013-01-10 21:05:00,
2013-01-10 16:11:00,42.8,13.5,30.50,NNW,331,3.6,5.4,30,0.00,,,0.00,VWS V12.08,2013-01-10 21:11:00,
2013-01-10 16:16:00,42.8,13.5,30.50,NNW,344,3.1,5.8,30,0.00,,,0.00,VWS V12.08,2013-01-10 21:16:00,
2013-01-10 16:26:00,42.6,14.1,30.50,NNW,334,3.6,5.4,31,0.00,,,0.00,VWS V12.08,2013-01-10 21:26:00,
2013-01-10 16:31:00,42.4,14.0,30.50,WNW,288,3.1,5.8,31,0.00,,,0.00,VWS V12.08,2013-01-10 21:31:00,
2013-01-10 16:41:00,42.4,14.0,30.50,WNW,303,4.0,7.6,31,0.00,,,0.00,VWS V12.08,2013-01-10 21:41:00,
2013-01-10 16:51:00,42.3,13.8,30.50,NNW,341,0.0,4.0,31,0.00,,,0.00,VWS V12.08,2013-01-10 21:51:00,
2013-01-10 17:06:00,42.3,13.8,30.50,North,0,2.7,5.4,31,0.00,,,0.00,VWS V12.08,2013-01-10 22:06:00,
2013-01-10 17:17:00,42.1,14.4,30.53,NW,321,6.3,7.2,32,0.00,,,0.00,VWS V12.08,2013-01-10 22:17:00,
2013-01-10 17:26:00,42.1,14.4,30.50,NNW,338,2.7,6.3,32,0.00,,,0.00,VWS V12.08,2013-01-10 22:26:00,
2013-01-10 17:32:00,41.9,14.2,30.50,North,1,2.7,6.3,32,0.00,,,0.00,VWS V12.08,2013-01-10 22:32:00,
2013-01-10 17:40:00,41.7,14.1,30.53,NNE,22,2.7,6.3,32,0.00,,,0.00,VWS V12.08,2013-01-10 22:40:00,
2013-01-10 17:46:00,41.7,14.1,30.53,NNW,334,2.2,7.6,32,0.00,,,0.00,VWS V12.08,2013-01-10 22:46:00,
2013-01-10 17:55:00,41.5,14.6,30.53,NNE,31,2.7,7.6,33,0.00,,,0.00,VWS V12.08,2013-01-10 22:55:00,
2013-01-10 18:05:00,41.5,14.6,30.53,NNW,345,0.0,7.6,33,0.00,,,0.00,VWS V12.08,2013-01-10 23:05:00,
2013-01-10 18:16:00,41.4,14.4,30.53,North,0,3.1,6.3,33,0.00,,,0.00,VWS V12.08,2013-01-10 23:16:00,
2013-01-10 18:25:00,41.4,15.1,30.53,NE,50,5.4,5.4,34,0.00,,,0.00,VWS V12.08,2013-01-10 23:25:00,
2013-01-10 18:31:00,41.4,14.4,30.53,NNE,28,0.0,5.4,33,0.00,,,0.00,VWS V12.08,2013-01-10 23:31:00,
2013-01-10 18:40:00,41.2,14.3,30.56,North,0,2.2,5.4,33,0.00,,,0.00,VWS V12.08,2013-01-10 23:40:00,
2013-01-10 18:46:00,41.2,15.0,30.56,NNW,327,3.1,3.6,34,0.00,,,0.00,VWS V12.08,2013-01-10 23:46:00,
2013-01-10 18:55:00,41.2,15.0,30.56,North,353,0.0,5.8,34,0.00,,,0.00,VWS V12.08,2013-01-10 23:55:00,
2013-01-10 19:04:00,41.2,15.0,30.56,NW,305,4.9,5.8,34,0.00,,,0.00,VWS V12.08,2013-01-11 00:04:00,
2013-01-10 19:10:00,41.0,14.8,30.56,East,82,4.0,7.6,34,0.00,,,0.00,VWS V12.08,2013-01-11 00:10:00,
2013-01-10 19:16:00,41.0,15.5,30.56,North,353,5.8,7.6,35,0.00,,,0.00,VWS V12.08,2013-01-11 00:16:00,
2013-01-10 19:25:00,40.8,15.3,30.56,NW,319,2.7,5.4,35,0.00,,,0.00,VWS V12.08,2013-01-11 00:25:00,
2013-01-10 19:31:00,40.8,15.3,30.56,NNW,345,2.7,5.4,35,0.00,,,0.00,VWS V12.08,2013-01-11 00:31:00,
2013-01-10 19:40:00,40.6,15.1,30.56,North,9,0.0,5.8,35,0.00,,,0.00,VWS V12.08,2013-01-11 00:40:00,
2013-01-10 19:46:00,40.6,15.1,30.56,NNW,334,0.0,4.0,35,0.00,,,0.00,VWS V12.08,2013-01-11 00:46:00,
2013-01-10 19:55:00,40.5,15.0,30.56,North,353,3.6,4.0,35,0.00,,,0.00,VWS V12.08,2013-01-11 00:55:00,
2013-01-10 20:04:00,40.5,15.0,30.56,WNW,297,0.0,4.0,35,0.00,,,0.00,VWS V12.08,2013-01-11 01:04:00,
2013-01-10 20:10:00,40.3,14.8,30.59,North,353,2.2,6.3,35,0.00,,,0.00,VWS V12.08,2013-01-11 01:10:00,
2013-01-10 20:16:00,40.3,14.8,30.59,NNE,16,0.0,6.3,35,0.00,,,0.00,VWS V12.08,2013-01-11 01:16:00,
2013-01-10 20:25:00,40.1,14.7,30.59,North,353,0.0,3.1,35,0.00,,,0.00,VWS V12.08,2013-01-11 01:25:00,
2013-01-10 20:31:00,40.1,14.7,30.59,NNE,22,0.0,4.0,35,0.00,,,0.00,VWS V12.08,2013-01-11 01:31:00,
2013-01-10 20:40:00,40.1,14.7,30.59,North,2,3.6,4.0,35,0.00,,,0.00,VWS V12.08,2013-01-11 01:40:00,
2013-01-10 20:46:00,40.1,14.7,30.59,NW,320,2.2,4.9,35,0.00,,,0.00,VWS V12.08,2013-01-11 01:46:00,
2013-01-10 20:55:00,39.9,14.5,30.59,NNE,20,4.0,5.8,35,0.00,,,0.00,VWS V12.08,2013-01-11 01:55:00,
2013-01-10 21:05:00,39.9,14.5,30.59,NW,307,4.0,5.8,35,0.00,,,0.00,VWS V12.08,2013-01-11 02:05:00,
2013-01-10 21:11:00,39.9,14.5,30.59,North,353,2.7,4.9,35,0.00,,,0.00,VWS V12.08,2013-01-11 02:11:00,
2013-01-10 21:16:00,39.7,14.3,30.59,North,0,6.3,6.3,35,0.00,,,0.00,VWS V12.08,2013-01-11 02:16:00,
2013-01-10 21:25:00,39.7,14.3,30.59,North,1,2.2,5.4,35,0.00,,,0.00,VWS V12.08,2013-01-11 02:25:00,
2013-01-10 21:32:00,39.7,14.3,30.59,North,353,5.4,5.4,35,0.00,,,0.00,VWS V12.08,2013-01-11 02:32:00,
2013-01-10 21:41:00,39.6,14.2,30.62,NE,35,0.0,5.4,35,0.00,,,0.00,VWS V12.08,2013-01-11 02:41:00,
2013-01-10 21:47:00,39.6,14.8,30.62,NNE,14,3.1,4.0,36,0.00,,,0.00,VWS V12.08,2013-01-11 02:47:00,
2013-01-10 21:55:00,39.4,14.7,30.59,NNW,332,2.2,5.8,36,0.00,,,0.00,VWS V12.08,2013-01-11 02:55:00,
2013-01-10 22:06:00,39.4,14.7,30.59,NE,47,0.0,5.8,36,0.00,,,0.00,VWS V12.08,2013-01-11 03:06:00,
2013-01-10 22:16:00,39.4,15.3,30.62,North,1,3.1,5.4,37,0.00,,,0.00,VWS V12.08,2013-01-11 03:16:00,
2013-01-10 22:26:00,39.6,15.4,30.62,North,350,0.0,4.0,37,0.00,,,0.00,VWS V12.08,2013-01-11 03:26:00,
2013-01-10 22:31:00,39.6,15.4,30.62,NNW,343,2.7,4.9,37,0.00,,,0.00,VWS V12.08,2013-01-11 03:31:00,
2013-01-10 22:41:00,39.6,15.4,30.62,NNW,328,0.0,5.4,37,0.00,,,0.00,VWS V12.08,2013-01-11 03:41:00,
2013-01-10 22:47:00,39.6,15.4,30.62,North,0,2.7,5.8,37,0.00,,,0.00,VWS V12.08,2013-01-11 03:47:00,
2013-01-10 22:56:00,39.4,15.9,30.62,NNW,334,2.7,5.8,38,0.00,,,0.00,VWS V12.08,2013-01-11 03:56:00,
2013-01-10 23:05:00,39.4,15.9,30.62,NNW,348,0.0,5.8,38,0.00,,,0.00,VWS V12.08,2013-01-11 04:05:00,
2013-01-10 23:11:00,39.4,15.9,30.62,NNW,344,3.1,4.0,38,0.00,,,0.00,VWS V12.08,2013-01-11 04:11:00,
2013-01-10 23:17:00,39.4,15.9,30.62,NNW,343,2.7,4.0,38,0.00,,,0.00,VWS V12.08,2013-01-11 04:17:00,
2013-01-10 23:26:00,39.4,15.9,30.62,WNW,299,3.6,3.6,38,0.00,,,0.00,VWS V12.08,2013-01-11 04:26:00,
2013-01-10 23:32:00,39.4,15.9,30.62,NNW,331,2.7,5.8,38,0.00,,,0.00,VWS V12.08,2013-01-11 04:32:00,
2013-01-10 23:41:00,39.4,15.9,30.62,North,8,0.0,5.8,38,0.00,,,0.00,VWS V12.08,2013-01-11 04:41:00,
2013-01-10 23:48:00,39.4,15.9,30.62,North,1,2.7,2.7,38,0.00,,,0.00,VWS V12.08,2013-01-11 04:48:00,
2013-01-10 23:56:00,39.2,15.7,30.62,North,7,0.0,4.9,38,0.00,,,0.00,VWS V12.08,2013-01-11 04:56:00,